Location: LDNL
(36.4545°S, 141.6685°E)
Time: 14:02:31
(UTC+11:00)

Courier 1B Rocket - Pass Details

Date: 04 February 2023
Orbit: 920 x 1202 km, 28.2° (Epoch: 25 March)

Event Time Altitude Azimuth Distance (km) Brightness Sun altitude
Rises 05:12:26 0° 312° (NW) 4,006 - -18.3°
Reaches altitude 10° 05:15:34 10° 322° (NW) 3,079 - -17.8°
Exits shadow 05:18:10 20° 336° (NNW) 2,434 6.6 -17.4°
Maximum altitude 05:22:05 30° 19° (NNE) 1,984 6.4 -16.8°
Drops below altitude 10° 05:28:43 10° 77° (ENE) 3,141 8.2 -15.7°
Sets 05:31:57 0° 87° (E) 4,098 9.1 -15.1°
